Location: Puketoi
(40.5833°S, 176.0167°E)
Time: 00:32:06
(UTC+00:00)

COSMOS 2455 - Pass Details

Date: 28 September 2023
Orbit: 902 x 907 km, 67.1° (Epoch: 03 December)

Event Time Altitude Azimuth Distance (km) Brightness Sun altitude
Exits shadow 12:47:16 13° 187° (S) 2,387 5.5 -46.4°
Drops below altitude 10° 12:48:18 10° 178° (S) 2,616 5.8 -46.3°
Sets 12:51:40 0° 160° (SSE) 3,562 6.7 -46.1°
